Regional Weather Roundup
Issued by NWS

Home | Current Version | Previous Version | Text Only | Print | Product List | Glossary On
Versions: 1 2 3 4 5 6 7 8 9 10 11 12 13 14 15 16 17 18 19 20 21 22 23 24 25 26 27 28 29 30 31 32 33 34 35 36 37 38 39 40 41 42 43 44 45 46 47 48 49 50
000
ASUS43 KTOP 231108
RWRKS

WEATHER ROUNDUP FOR KANSAS
NATIONAL WEATHER SERVICE GOODLAND KS
600 AM CDT SUN APR 23 2017

NOTE:  "FAIR" INDICATES FEW OR NO CLOUDS BELOW 12,000 FEET WITH NO
SIGNIFICANT WEATHER AND/OR OBSTRUCTIONS TO VISIBILITY.

KSZ001>006-013>018-027>032-041>047-231200-
NORTHWEST KANSAS

CITY           SKY/WX    TMP DP  RH WIND       PRES   REMARKS
GOODLAND       CLEAR     38  30  73 S14       30.13F WCI  30
HAYS           CLEAR     30  27  88 W6        30.19F
HILL CITY      CLEAR     34  30  85 W6        30.18F
RUSSELL        CLEAR     34  30  85 SW6       30.17F
$$

KSZ061>065-074>080-084>089-231200-
SOUTHWEST KANSAS

CITY           SKY/WX    TMP DP  RH WIND       PRES   REMARKS
DODGE CITY     CLEAR     38  31  76 SW7       30.21F
ELKHART          N/A     41  28  60 S8          N/A
GARDEN CITY    CLEAR     34  29  82 SW7       30.19F
GREAT BEND     CLEAR     34  31  88 SW3       30.19F
LIBERAL        CLEAR     36  27  69 CALM      30.22F
PRATT          CLEAR     34  32  91 NW5       30.21S
$$

KSZ066>073-081>083-090>101-231200-
SOUTHEAST KANSAS

CITY           SKY/WX    TMP DP  RH WIND       PRES   REMARKS
CHANUTE        CLEAR     39  34  82 N5        30.15F
COFFEYVILLE    CLEAR     41  36  82 N5        30.15S
HUTCHINSON     CLEAR     34  32  92 NW5       30.19S
MEDICINE LODGE   N/A     35  33  92 N5        30.20F
NEWTON         CLEAR     45  31  58 NE3       30.18F
PARSONS        CLEAR     41  37  86 CALM      30.16S
WICHITA INTL   CLEAR     39  36  89 NW6       30.18F
WICHITA JABRA  CLEAR     41  32  70 N3        30.17F
WICHITA MCCONL CLEAR     42  34  71 NE3       30.18S
WINFIELD       CLEAR     39  35  86 NW3       30.20R
$$

KSZ007>012-019>026-033>040-048>060-102>105-231200-
NORTHEAST KANSAS

CITY           SKY/WX    TMP DP  RH WIND       PRES   REMARKS
CONCORDIA      CLEAR     36  32  85 W6        30.18S
EMPORIA        CLEAR     40  35  83 NW6       30.18R
LAWRENCE       CLEAR     34  33  96 W6        30.17S
MANHATTAN      CLEAR     33  32  96 CALM      30.18F
MARYSVILLE     CLEAR     34  32  93 CALM      30.18R
OLATHE IND     CLEAR     39  32  76 NW3       30.17S
OLATHE EXE     CLEAR     44  33  65 N7        30.16S
SALINA         CLEAR     37  33  85 CALM      30.19F
TOPEKA BILLARD CLEAR     37  36  96 CALM      30.17F
TOPEKA FORBES  CLEAR     38  33  82 NW5       30.16F
$$



USA.gov is the U.S. government's official web portal to all federal, state and local government web resources and services.